Location: Bonny Doon Airfield
(37.0704°N, 122.1252°W)
Time: 22:53:55
(UTC-07:00)

BREEZE M DEB (TANK) - Visible Passes

Search period start: 22 October 2014 00:00
Search period end: 01 November 2014 00:00
Orbit: 339 x 13819 km, 49.6° (Epoch: 22 October)

Date Brightness Start Highest point End Pass type
(mag) Time Alt. Az. Time Alt. Az. Time Alt. Az.
22 Oct 4.8 05:43:09 11° N 05:43:57 12° NNE 05:45:09 10° NE visible
22 Oct 8.0 22:21:41 10° S 22:29:52 17° S 22:29:52 17° S visible
24 Oct 7.8 21:47:39 10° S 21:59:09 19° S 21:59:09 19° S visible
25 Oct 8.1 23:51:01 10° SW 23:53:17 13° SW 23:53:17 13° SW visible
26 Oct 7.7 21:13:50 10° S 21:28:22 20° SSE 21:28:22 20° SSE visible
27 Oct 3.7 06:34:14 11° NW 06:36:46 45° NE 06:42:26 10° ESE visible
27 Oct 7.8 23:15:45 10° SW 23:22:27 19° SSW 23:22:27 19° SSW visible
28 Oct 7.6 20:40:23 10° S 20:57:29 19° SE 20:57:29 19° SE visible
29 Oct 4.0 06:02:45 21° NNW 06:04:03 31° NE 06:08:22 10° ESE visible
29 Oct 7.6 22:40:17 10° SSW 22:51:31 24° SSW 22:51:31 24° SSW visible
30 Oct 7.5 20:07:30 10° S 20:24:25 17° SE 20:26:31 16° SE visible
31 Oct 4.4 05:31:12 22° NNE 05:31:14 22° NE 05:34:20 10° E visible
31 Oct 7.3 22:04:40 10° SSW 22:20:30 29° S 22:20:30 29° S visible
